• In Deutschland
  • Länderverzeichnis
  • Für 7 Tage
  • Wassertemperatur
  • Satellitenkarten
  • Wetterkarte
  • Widgets
  • user-avatar
    Anmelden

    Stündliche Wetter Dietzenbach

    Heute, 17 Oktober, Dienstag

    Zeit Temperatur Niederschläge Wind Luftdruck Luftfeuchtigkeit
    00:00 +15°C° 0 mm 1 m/S 754 mmHg 75%
    01:00 +14°C° 0 mm 1 m/S 755 mmHg 76%
    02:00 +14°C° 0 mm 1 m/S 754 mmHg 77%
    03:00 +14°C° 0 mm 1 m/S 754 mmHg 79%
    04:00 +13°C° 0 mm 1 m/S 754 mmHg 80%
    05:00 +13°C° 0 mm 1 m/S 754 mmHg 80%
    06:00 +13°C° 0 mm 1 m/S 754 mmHg 81%
    07:00 +13°C° 0 mm 1 m/S 754 mmHg 82%
    08:00 +14°C° 0 mm 1 m/S 754 mmHg 75%
    09:00 +16°C° 0 mm 1 m/S 754 mmHg 68%
    10:00 +19°C° 0 mm 1 m/S 754 mmHg 61%
    11:00 +20°C° 0 mm 1 m/S 754 mmHg 58%
    12:00 +22°C° 0 mm 1 m/S 753 mmHg 55%
    13:00 +23°C° 0 mm 1 m/S 753 mmHg 51%
    14:00 +23°C° 0 mm 1 m/S 753 mmHg 54%
    15:00 +23°C° 0 mm 1 m/S 752 mmHg 56%
    16:00 +23°C° 0 mm 1 m/S 752 mmHg 58%
    17:00 +21°C° 0 mm 1 m/S 752 mmHg 62%
    18:00 +19°C° 0 mm 1 m/S 751 mmHg 67%
    19:00 +16°C° 0 mm 1 m/S 751 mmHg 71%
    20:00 +16°C° 0 mm 1 m/S 751 mmHg 72%
    21:00 +15°C° 0 mm 1 m/S 751 mmHg 73%
    22:00 +15°C° 0 mm 1 m/S 751 mmHg 74%
    23:00 +15°C° 0 mm 1 m/S 751 mmHg 75%

    Morgen, 18 Oktober, Mittwoch

    Zeit Temperatur Niederschläge Wind Luftdruck Luftfeuchtigkeit
    00:00 +14°C° 0 mm 1 m/S 750 mmHg 76%
    01:00 +14°C° 0 mm 1 m/S 750 mmHg 77%
    02:00 +13°C° 0 mm 1 m/S 750 mmHg 78%
    03:00 +13°C° 0 mm 1 m/S 750 mmHg 78%
    04:00 +13°C° 0 mm 1 m/S 749 mmHg 79%
    05:00 +13°C° 0 mm 1 m/S 749 mmHg 79%
    06:00 +12°C° 0 mm 1 m/S 749 mmHg 80%
    07:00 +12°C° 0 mm 1 m/S 749 mmHg 80%
    08:00 +14°C° 0 mm 1 m/S 749 mmHg 73%
    09:00 +16°C° 0 mm 2 m/S 749 mmHg 67%
    10:00 +17°C° 0 mm 2 m/S 749 mmHg 60%
    11:00 +18°C° 0 mm 2 m/S 749 mmHg 56%
    12:00 +19°C° 0 mm 2 m/S 748 mmHg 52%
    13:00 +20°C° 0 mm 2 m/S 748 mmHg 49%
    14:00 +20°C° 0 mm 2 m/S 748 mmHg 51%
    15:00 +20°C° 0 mm 2 m/S 748 mmHg 53%
    16:00 +21°C° 0 mm 1 m/S 747 mmHg 56%
    17:00 +19°C° 0 mm 1 m/S 747 mmHg 60%
    18:00 +18°C° 0 mm 1 m/S 748 mmHg 65%
    19:00 +15°C° 0 mm 1 m/S 748 mmHg 69%
    20:00 +15°C° 0 mm 1 m/S 748 mmHg 70%
    21:00 +14°C° 0 mm 1 m/S 748 mmHg 72%
    22:00 +14°C° 0 mm 1 m/S 748 mmHg 73%
    23:00 +14°C° 0 mm 1 m/S 748 mmHg 73%

    übermorgen, 19 Oktober, Donnerstag

    Zeit Temperatur Niederschläge Wind Luftdruck Luftfeuchtigkeit
    00:00 +13°C° 0 mm 1 m/S 748 mmHg 74%
    01:00 +13°C° 0 mm 1 m/S 748 mmHg 74%
    02:00 +13°C° 0 mm 1 m/S 748 mmHg 75%
    03:00 +13°C° 0 mm 1 m/S 748 mmHg 76%
    04:00 +12°C° 0 mm 1 m/S 747 mmHg 76%
    05:00 +12°C° 0 mm 1 m/S 747 mmHg 77%
    06:00 +12°C° 0 mm 1 m/S 747 mmHg 77%
    07:00 +12°C° 0 mm 1 m/S 747 mmHg 78%
    08:00 +14°C° 0 mm 1 m/S 747 mmHg 72%
    09:00 +15°C° 0 mm 1 m/S 747 mmHg 67%
    10:00 +17°C° 0 mm 2 m/S 747 mmHg 61%
    11:00 +19°C° 0 mm 2 m/S 747 mmHg 57%
    12:00 +20°C° 0 mm 2 m/S 747 mmHg 54%
    13:00 +21°C° 0 mm 2 m/S 747 mmHg 50%
    14:00 +21°C° 0 mm 2 m/S 747 mmHg 52%
    15:00 +21°C° 0 mm 2 m/S 746 mmHg 54%
    16:00 +22°C° 0 mm 1 m/S 746 mmHg 57%
    17:00 +20°C° 0 mm 1 m/S 746 mmHg 61%
    18:00 +19°C° 0 mm 1 m/S 746 mmHg 66%
    19:00 +16°C° 0 mm 1 m/S 746 mmHg 70%
    20:00 +16°C° 0 mm 2 m/S 746 mmHg 70%
    21:00 +16°C° 0 mm 2 m/S 746 mmHg 70%
    22:00 +16°C° 0 mm 2 m/S 746 mmHg 71%
    23:00 +16°C° 0 mm 2 m/S 746 mmHg 71%

    20 Oktober, Freitag

    Zeit Temperatur Niederschläge Wind Luftdruck Luftfeuchtigkeit
    00:00 +16°C° 0 mm 2 m/S 746 mmHg 72%
    01:00 +15°C° 0 mm 2 m/S 746 mmHg 72%
    02:00 +16°C° 0 mm 2 m/S 746 mmHg 71%
    03:00 +16°C° 0 mm 2 m/S 746 mmHg 70%
    04:00 +16°C° 0 mm 2 m/S 746 mmHg 68%
    05:00 +16°C° 0,1 mm 3 m/S 746 mmHg 70%
    06:00 +16°C° 0,1 mm 3 m/S 746 mmHg 72%
    07:00 +14°C° 0,1 mm 4 m/S 746 mmHg 74%
    08:00 +15°C° 0,1 mm 4 m/S 746 mmHg 74%
    09:00 +16°C° 0,1 mm 5 m/S 747 mmHg 73%
    10:00 +17°C° 0,1 mm 6 m/S 747 mmHg 73%
    11:00 +17°C° 0 mm 6 m/S 748 mmHg 70%
    12:00 +19°C° 0 mm 6 m/S 748 mmHg 68%
    13:00 +19°C° 0 mm 6 m/S 748 mmHg 65%
    14:00 +19°C° 0 mm 5 m/S 748 mmHg 65%
    15:00 +19°C° 0 mm 4 m/S 748 mmHg 66%
    16:00 +19°C° 0 mm 4 m/S 748 mmHg 66%
    17:00 +17°C° 0 mm 3 m/S 748 mmHg 72%
    18:00 +16°C° 0 mm 2 m/S 748 mmHg 77%
    19:00 +15°C° 0 mm 2 m/S 748 mmHg 83%
    20:00 +15°C° 0 mm 2 m/S 748 mmHg 84%
    21:00 +14°C° 0 mm 2 m/S 748 mmHg 86%
    22:00 +14°C° 0 mm 1 m/S 748 mmHg 88%
    23:00 +14°C° 0 mm 2 m/S 747 mmHg 88%

    21 Oktober, Samstag

    Zeit Temperatur Niederschläge Wind Luftdruck Luftfeuchtigkeit
    00:00 +14°C° 0 mm 2 m/S 747 mmHg 88%
    01:00 +14°C° 0 mm 2 m/S 746 mmHg 88%
    02:00 +14°C° 0 mm 2 m/S 746 mmHg 85%
    03:00 +14°C° 0 mm 3 m/S 746 mmHg 83%
    04:00 +14°C° 0 mm 3 m/S 745 mmHg 80%
    05:00 +14°C° 0 mm 3 m/S 745 mmHg 78%
    06:00 +15°C° 0 mm 4 m/S 745 mmHg 76%
    07:00 +15°C° 0 mm 4 m/S 744 mmHg 74%
    08:00 +15°C° 0,5 mm 4 m/S 745 mmHg 74%
    09:00 +16°C° 0,5 mm 5 m/S 745 mmHg 75%
    10:00 +16°C° 0,5 mm 6 m/S 745 mmHg 75%
    11:00 +16°C° 0,6 mm 5 m/S 745 mmHg 77%
    12:00 +16°C° 0,6 mm 5 m/S 745 mmHg 79%
    13:00 +15°C° 0,6 mm 5 m/S 745 mmHg 81%
    14:00 +15°C° 0,2 mm 5 m/S 745 mmHg 79%
    15:00 +15°C° 0,2 mm 5 m/S 745 mmHg 78%
    16:00 +14°C° 0,2 mm 5 m/S 745 mmHg 77%
    17:00 +14°C° 0 mm 5 m/S 745 mmHg 76%
    18:00 +13°C° 0 mm 4 m/S 745 mmHg 76%
    19:00 +12°C° 0 mm 4 m/S 746 mmHg 75%
    20:00 +12°C° 0 mm 4 m/S 746 mmHg 74%
    21:00 +12°C° 0 mm 4 m/S 746 mmHg 73%
    22:00 +10°C° 0 mm 5 m/S 747 mmHg 71%
    23:00 +11°C° 0 mm 4 m/S 747 mmHg 71%

    22 Oktober, Sonntag

    Zeit Temperatur Niederschläge Wind Luftdruck Luftfeuchtigkeit
    00:00 +10°C° 0 mm 4 m/S 747 mmHg 71%
    01:00 +10°C° 0 mm 4 m/S 747 mmHg 70%
    02:00 +8°C° 0 mm 4 m/S 747 mmHg 71%
    03:00 +8°C° 0 mm 4 m/S 747 mmHg 72%
    04:00 +8°C° 0 mm 4 m/S 747 mmHg 73%
    05:00 +7°C° 0 mm 4 m/S 747 mmHg 75%
    06:00 +7°C° 0 mm 4 m/S 747 mmHg 76%
    07:00 +7°C° 0 mm 4 m/S 747 mmHg 77%
    08:00 +8°C° 0 mm 5 m/S 747 mmHg 73%
    09:00 +9°C° 0 mm 5 m/S 747 mmHg 68%
    10:00 +9°C° 0 mm 6 m/S 747 mmHg 64%
    11:00 +10°C° 0 mm 6 m/S 747 mmHg 61%
    12:00 +10°C° 0 mm 7 m/S 747 mmHg 58%
    13:00 +11°C° 0 mm 7 m/S 747 mmHg 55%
    14:00 +10°C° 0,1 mm 7 m/S 747 mmHg 58%
    15:00 +10°C° 0,1 mm 6 m/S 747 mmHg 60%
    16:00 +10°C° 0,1 mm 6 m/S 747 mmHg 62%
    17:00 +9°C° 0 mm 6 m/S 747 mmHg 64%
    18:00 +9°C° 0 mm 6 m/S 747 mmHg 66%
    19:00 +8°C° 0 mm 6 m/S 747 mmHg 69%
    20:00 +8°C° 0,1 mm 6 m/S 747 mmHg 71%
    21:00 +8°C° 0,1 mm 6 m/S 747 mmHg 73%
    22:00 +8°C° 0,1 mm 6 m/S 747 mmHg 76%
    23:00 +8°C° 0,2 mm 6 m/S 747 mmHg 77%
    Mehr zeigen